Flag for Germany Weather past 2 weeks in Zwickau, Saxony, Germany

Now
68 °F

Passing clouds.


Feels Like: 68 °F
Forecast: 55 / 74 °F
Wind: 6 mph from Southwest

Location: Altenburg Nobitz

Current Time: Sep 18, 2014 at 11:38:44 AM

Latest Report: Sep 18, 2014 at 11:20 AM


Visibility: N/A

Pressure: 29.95 "Hg

Humidity: 64%

Dew point: 55 °F

Location of ZwickauLocation

Historic Weather in Zwickau — Graph

°F

Zwickau temperature yesterday

Maximum temperature yesterday: 73 °F (at 1:20 PM)
Minimum temperature yesterday: 59 °F (at 8:20 AM)
Average temperature yesterday: 69 °F

Past Weeks' High & Low Weather Summary

 TemperatureHumidityPressure
High81 °F (Sep 5, 2:20 PM)100% (Sep 4, 8:20 AM)30.24 "Hg (Sep 4, 8:20 AM)
Low55 °F (Sep 4, 8:20 AM)50% (Sep 16, 2:50 PM)29.89 "Hg (Sep 6, 1:50 PM)
Average65 °F79%30.04 "Hg
* Reported Sep 3 10:20 AM — Sep 18 10:20 AM, Zwickau, Weather by CustomWeather, © 2014

Note: Actual official high and low records may vary slightly from our data, if they occured in-between our weather recording intervals... More about our weather records

Advertising

Zwickau weather history for previous 24 hours

 ConditionsComfort  
Time TempWeatherWind HumidityBarometerVisibility
10:20 AM
Sep 18
64 °FSunny.3 mph73%29.95 "Hg10 mi
9:50 AM63 °FSunny.5 mph77%29.95 "Hg10 mi
9:20 AM61 °FSunny.2 mph83%29.95 "Hg10 mi
8:50 AM59 °FSunny.2 mph88%29.95 "Hg10 mi
8:20 AM55 °FSunny.2 mph94%29.95 "Hg10 mi
7:50 PM
Sep 17
64 °FPassing clouds.5 mph78%29.95 "HgN/A
7:20 PM64 °FPassing clouds.3 mph83%29.95 "HgN/A
6:50 PM68 °FSunny.2 mph73%29.95 "Hg10 mi
5:50 PM72 °FPassing clouds.7 mph57%29.95 "HgN/A
5:20 PM72 °FPassing clouds.7 mph57%29.95 "HgN/A
4:50 PM73 °FPassing clouds.10 mph53%29.95 "HgN/A
4:20 PM73 °FPassing clouds.12 mph50%29.95 "HgN/A
3:50 PM73 °FPassing clouds.9 mph50%29.95 "HgN/A
3:20 PM73 °FPassing clouds.12 mph50%29.95 "HgN/A
2:50 PM73 °FPassing clouds.10 mph50%29.98 "HgN/A
2:20 PM73 °FPassing clouds.9 mph50%29.98 "HgN/A
1:50 PM72 °FPassing clouds.9 mph53%29.98 "HgN/A
1:20 PM73 °FPassing clouds.9 mph53%29.98 "HgN/A
12:50 PM72 °FPassing clouds.8 mph53%29.98 "HgN/A
12:20 PM70 °FPassing clouds.9 mph60%30.01 "HgN/A
11:50 AM70 °FPassing clouds.7 mph60%30.01 "HgN/A
11:20 AM68 °FPassing clouds.8 mph64%30.01 "HgN/A
Weather by CustomWeather, © 2014

See weather overviewHow to use our weather pages